Siga o Apolo11 no Facebook   Siga o Apolo11 no Twiiter
Ciência, Espaço e Tecnologia




Elementos Keplerianos formato Two Line

Para que um programa de rastreio possa saber a localização exata de qualquer satélite no espaço e assim poder rastreá-lo corretamente, é necessário que ele seja carregado com algumas informações.

Estas informações são chamadas de Elementos Orbitais ou Elementos Keplerianos e consistem em 2 linhas com dezenas de números. Esses números nada mais são que os parâmetros orbitais do satélite, tais como altitude, atitude, excentricidade da órbita, número de órbitas por dia, etc.

Com base nestas informações o programa é capaz de determinar com bastante exatidão a posição de qualquer satélite no espaço e nos informar em qual horário este estará dentro do alcance de nossa estação. Para que isso seja feito com precisão é necessário que os dados estejam sempre bem atualizadas.

Devido aos parâmetros orbitais serem descritos em 2 linhas, estes formato é também conhecido internacionalmente por 2line (leia-se Two Line”).

Para atualizar seu programa de rastreio basta copiar os dados disponibilizados e fornece-los ao programa. Nossos elementos orbitais são atualizados diariamente.

NOAATodos os satélites ambientais da série NOAA
30 DiasSatélites lançados nos últimos 30 dias
ISSSatélites e foguetes relacionados à Estação Espacial Internacional
HAMSatélites construídos por radiomadores
CUBESatélites tipo cubo, com 10 centímetros de lado
METEOSatélites voltados à previsão do tempo
EDUSatélites construídos e operados por universidades
VIS100 satélites mais brilhantes que podem ser vistos a olho nú



Satélites Visíveis
ATLAS CENTAUR 2         
1 00694U 63047A   23080.37874273  .00005677  00000+0  72134-3 0  9997
2 00694  30.3590 101.5905 0577034 297.5242  56.7866 14.04771345978636
THOR AGENA D R/B        
1 00733U 64002A   23080.81742541  .00000420  00000+0  17083-3 0  9997
2 00733  99.0157  25.5300 0033625 173.0758 187.0895 14.32731860 83027
SL-3 R/B                
1 00877U 64053B   23080.78719268  .00000335  00000+0  92602-4 0  9994
2 00877  65.0763 264.7772 0066923 349.7030  10.2693 14.59766549108497
SL-8 R/B                
1 02802U 67045B   23080.79984890  .00000672  00000+0  19883-3 0  9997
2 02802  74.0126 209.8617 0065072 118.7287 242.0430 14.44138620932519
SL-8 R/B                
1 03230U 68040B   23080.88137099  .00004048  00000+0  39268-3 0  9990
2 03230  74.0392 349.0222 0027737 102.1413 258.2879 14.92733750927757
OAO 2                   
1 03597U 68110A   23080.48402934  .00000467  00000+0  13425-3 0  9991
2 03597  34.9924 192.9478 0005351 155.9186 204.1756 14.46130570862031
ISIS 1                  
1 03669U 69009A   23080.84382369  .00000368  00000+0  24580-3 0  9992
2 03669  88.4088 274.6277 1712087 115.9539 262.7704 11.29659508226112
SERT 2                  
1 04327U 70009A   23080.84371287 -.00000001  00000+0  53842-4 0  9992
2 04327  99.1378  75.4286 0005777  64.1599 359.8885 13.58549876632718
SL-3 R/B                
1 04814U 70113B   23080.92616066  .00034251  00000+0  61920-3 0  9993
2 04814  81.1401  20.5275 0018760  34.2409 326.0043 15.49329152858065
SL-3 R/B                
1 05118U 71028B   23080.93163384  .00008687  00000+0  39851-3 0  9990
2 05118  81.2504 257.0712 0042830  65.3211 295.2470 15.19460160822437
ASTEX 1                 
1 05560U 71089A   23080.44007568  .00000830  00000+0  22062-3 0  9993
2 05560  92.7126 161.5467 0017764 135.8338 224.4288 14.48610174705223
SL-8 R/B                
1 05730U 71119B   23080.81356789  .00009316  00000+0  57557-3 0  9994
2 05730  73.9009   1.4214 0653016 187.8138 171.2439 14.12407691501114
COSMOS 482 DESCENT CRAFT
1 06073U 72023E   23081.19114427  .00079168  71683-5  21802-3 0  9990
2 06073  52.0181  33.2553 1020543 159.2142 205.3612 13.86412937637194
OAO 3 (COPERNICUS)      
1 06153U 72065A   23080.20545906  .00000664  00000+0  14584-3 0  9999
2 06153  35.0080 347.8792 0007518 296.8915 194.8489 14.58334295687709
ATLAS CENTAUR R/B       
1 06155U 72065B   23080.89923920  .00001984  00000+0  30632-3 0  9990
2 06155  35.0028 151.8242 0037438 284.4083  75.2463 14.72683531702044
SL-8 R/B                
1 08459U 75112B   23080.83847853  .00000497  00000+0  17589-3 0  9993
2 08459  74.0618 210.8827 0016466 216.3885 143.6150 14.37083868476115
SL-3 R/B                
1 10114U 77057B   23080.92669375  .00007807  00000+0  35160-3 0  9992
2 10114  97.4447 221.3149 0013066 167.6854 192.4704 15.21265005502448
SEASAT 1                
1 10967U 78064A   23080.56323929  .00000824  00000+0  27888-3 0  9999
2 10967 107.9911  15.1381 0001015 285.7804  74.3229 14.44280343350191
METEOR 1-29             
1 11251U 79005A   23080.91939985  .00034346  00000+0  52627-3 0  9991
2 11251  97.7564  76.0738 0013868 100.6262 259.6554 15.54157911963838
SL-14 R/B               
1 11267U 79011B   23080.40710805  .00001200  00000+0  12298-3 0  9990
2 11267  82.5256  43.3017 0018391  75.1322 285.1931 14.89528651367247
SL-8 R/B                
1 11574U 79089B   23080.88419836  .00000425  00000+0  13992-3 0  9998
2 11574  74.0683 295.1666 0015363  20.7082 339.4693 14.41086764279916
SL-14 R/B               
1 11672U 80005B   23081.18846333  .00001202  00000+0  12626-3 0  9994
2 11672  82.5125 252.9752 0016781 166.0891 194.0792 14.88558732336283
SL-8 R/B                
1 12139U 81003B   23081.23723832  .00019991  00000+0  86632-3 0  9998
2 12139  82.9500 177.7092 0418431 221.0743 135.8265 14.68220609153541
SL-3 R/B                
1 12465U 81046B   23080.89621800  .00005527  00000+0  26425-3 0  9994
2 12465  81.2392 123.8691 0032639 121.4997 238.9429 15.18344906272875
METEOR PRIRODA          
1 12585U 81065A   23080.91777401  .00012465  00000+0  45947-3 0  9999
2 12585  97.5812  94.6182 0010664 237.8357 122.1848 15.27903524276477
SL-3 R/B                
1 12904U 81103B   23080.93505458  .00006527  00000+0  41564-3 0  9993
2 12904  81.1785  30.2559 0027316 337.1855  22.8153 15.08318137809222
SL-3 R/B                
1 13068U 82013B   23080.84079374  .00003979  00000+0  24191-3 0  9994
2 13068  81.1933 338.2579 0031253 199.4400 160.5636 15.09831341240191
SL-3 R/B                
1 13154U 82039B   23081.18862673  .00003585  00000+0  27719-3 0  9990
2 13154  81.1869  12.9667 0036839 276.6200  83.0828 15.00748436218910
SL-3 R/B                
1 13403U 82079B   23080.79772830  .00004819  00000+0  29290-3 0  9999
2 13403  81.1626  16.8861 0029696 188.4713 171.6015 15.09918086213409
COSMOS 1408             
1 13552U 82092A   23081.24828937  .00018758  00000+0  47830-3 0  9997
2 13552  82.5738 348.7432 0022489 185.7783 174.3207 15.39126853218587
SL-14 R/B               
1 13553U 82092B   23081.23448491  .00000950  00000+0  10911-3 0  9995
2 13553  82.5658  73.3540 0019622 292.2526  78.2548 14.84700372189146
SL-3 R/B                
1 13819U 83010B   23080.46022946  .00009598  00000+0  44091-3 0  9991
2 13819  81.1145 220.2018 0029079 153.7373 206.5339 15.19882713192055
COSMOS 1455             
1 14032U 83037A   23080.27807296  .00012146  00000+0  48853-3 0  9999
2 14032  82.5160 164.9734 0015722 153.5731 206.6312 15.24665371180346
SL-3 R/B                
1 14208U 83075B   23080.84263873  .00007168  00000+0  38170-3 0  9995
2 14208  97.5193  56.5824 0037808  73.5178 287.0203 15.14898492164967
COSMOS 1500             
1 14372U 83099A   23081.19948097  .00015429  00000+0  60585-3 0  9994
2 14372  82.5120  58.6032 0010833 320.8995  39.1459 15.25539213157248
COSMOS 1536             
1 14699U 84013A   23081.27012477  .00004240  00000+0  27187-3 0  9996
2 14699  82.5184  90.2015 0017019  76.4539 283.8584 15.08152137129720
COSMOS 1544             
1 14819U 84027A   23080.69547330  .00025399  00000+0  64502-3 0  9991
2 14819  82.4754  63.4770 0011776 152.9651 207.2210 15.39439835136939
SL-14 R/B               
1 14820U 84027B   23081.22518018  .00000850  00000+0  98845-4 0  9997
2 14820  82.5457 179.5431 0017550 320.4358  39.5575 14.84109672107948
SL-8 R/B                
1 15483U 85006B   23081.23019965  .00000500  00000+0  17863-3 0  9991
2 15483  74.0435  92.9026 0020105 274.9556 160.4644 14.36637250998648
COSMOS 1626             
1 15494U 85009A   23080.57077573  .00012902  00000+0  40840-3 0  9991
2 15494  82.4730 297.6565 0001009 191.7935 168.3283 15.32629654 88970
SL-12 R/B(2)            
1 15772U 85042D   23081.11068534  .00000095  00000+0  64724-4 0  9993
2 15772  71.1076 215.9644 0034996   8.1500 164.1261 14.21424262960387
SL-14 R/B               
1 15945U 85069B   23081.18606853  .00000730  00000+0  83535-4 0  9990
2 15945  82.5283 322.2032 0019571 172.4972 187.6540 14.84505714 33087
SL-16 R/B               
1 16182U 85097B   23080.84308690  .00000300  00000+0  17514-3 0  9991
2 16182  71.0011 261.8431 0005610 116.8231 339.8617 14.16321234933749
SL-14 R/B               
1 16496U 86006B   23080.90116120  .00000902  00000+0  10374-3 0  9997
2 16496  82.5277 197.7878 0018275 328.4387 171.1705 14.84598059988284
COSMOS 1743             
1 16719U 86034A   23080.79429862  .00008045  00000+0  37163-3 0  9994
2 16719  82.5458  87.9632 0011291 172.9299   0.0646 15.19988573 14104
SL-14 R/B               
1 16792U 86046B   23080.91744072  .00000866  00000+0  10157-3 0  9992
2 16792  82.4855  22.4450 0023267 201.4597 158.5645 14.83698502965598
SL-14 R/B               
1 16882U 86055B   23081.19354096  .00001006  00000+0  11866-3 0  9991
2 16882  82.5194  63.4804 0018497 315.1455  55.3908 14.83693164979778
AJISAI (EGS)            
1 16908U 86061A   23080.81426549 -.00000095  00000+0  14319-4 0  9993
2 16908  50.0081 186.1886 0011338  48.9651  58.3032 12.44499563333037
COSMOS 1812             
1 17295U 87003A   23080.82483534  .00012192  00000+0  54653-3 0  9992
2 17295  82.5110 230.6474 0003388  46.2342 313.9173 15.21108988977409
SL-14 R/B               
1 17567U 87024B   23081.20497429  .00000972  00000+0  11304-3 0  9997
2 17567  82.5311  29.3345 0017488 241.6800 118.2652 14.84222432948461
